CW2931 Weather Reports


Display with metric or nautical units.
time (UTC)temp
F
wind
direction
speed
MPH
gust
MPH
rain 1hr
in
rain 24hr
in
rain mn
in
humidity
%
barometer
mb
20260903053104 76 24 0.0 0.0 0.00 0.00 0.00 77 1011.9
20260903052605 76 24 0.0 1.0 0.00 0.00 0.00 77 1011.8
20260903052104 76 24 0.0 0.0 0.00 0.00 0.00 77 1011.7
20260903051605 76 24 0.0 0.0 0.00 0.00 0.00 77 1011.7
20260903051107 76 24 0.0 2.0 0.00 0.00 0.00 77 1011.6
20260903050604 76 23 1.0 3.0 0.00 0.00 0.00 76 1011.3
20260903050104 76 23 2.0 3.0 0.00 0.00 0.00 76 1011.5
20260903045604 77 22 1.0 2.0 0.00 0.00 0.00 76 1011.7
20260903045104 77 22 1.0 3.0 0.00 0.00 0.00 75 1011.7
20260903044604 77 20 0.0 0.0 0.00 0.00 0.00 75 1011.9
20260903044104 77 20 0.0 0.0 0.00 0.00 0.00 74 1011.9
20260903043605 77 20 0.0 1.0 0.00 0.00 0.00 74 1012.0
20260903043105 77 20 0.0 2.0 0.00 0.00 0.00 74 1012.0
20260903042605 77 20 0.0 2.0 0.00 0.00 0.00 73 1012.3
20260903042105 78 20 1.0 3.0 0.00 0.00 0.00 73 1012.4
20260903040604 78 23 1.0 9.0 0.00 0.00 0.00 70 1012.3
20260903040105 79 343 2.0 5.0 0.00 0.00 0.00 69 1012.7
20260903035605 79 331 2.0 5.0 0.00 0.00 0.00 68 1012.9
20260903035104 80 13 3.0 5.0 0.00 0.00 0.00 66 1012.8
20260903034604 80 338 3.0 9.0 0.00 0.00 0.00 65 1012.5
20260903033604 81 292 4.0 16.0 0.00 0.00 0.00 62 1012.6
20260903033104 82 324 5.0 12.0 0.00 0.00 0.00 63 1012.8
20260903032605 83 17 6.0 20.0 0.00 0.00 0.00 66 1012.6
20260903032104 85 325 1.0 3.0 0.00 0.00 0.00 76 1012.6
20260903031604 85 236 1.0 2.0 0.00 0.00 0.00 75 1011.2
20260903031105 85 230 0.0 2.0 0.00 0.00 0.00 75 1010.7
20260903030604 85 230 2.0 7.0 0.00 0.00 0.00 75 1010.5
20260903030105 85 230 2.0 3.0 0.00 0.00 0.00 75 1010.5
20260903025604 85 238 4.0 10.0 0.00 0.00 0.00 75 1010.1
20260903025105 85 209 3.0 7.0 0.00 0.00 0.00 75 1010.2
20260903024605 85 218 2.0 13.0 0.00 0.00 0.00 74 1010.0
20260903023605 85 225 3.0 7.0 0.00 0.00 0.00 74 1009.5
20260903022604 86 212 2.0 6.0 0.00 0.00 0.00 73 1010.1
20260903022105 86 226 2.0 6.0 0.00 0.00 0.00 72 1010.5
20260903021604 86 201 2.0 3.0 0.00 0.00 0.00 72 1010.6
20260903021104 86 210 3.0 5.0 0.00 0.00 0.00 72 1010.9
20260903020605 86 212 2.0 5.0 0.00 0.00 0.00 71 1010.9
20260903020105 87 227 2.0 6.0 0.00 0.00 0.00 71 1011.0
20260903015605 87 231 2.0 7.0 0.00 0.00 0.00 70 1010.9
20260903015104 87 206 1.0 3.0 0.00 0.00 0.00 70 1010.7
20260903014604 87 199 2.0 5.0 0.00 0.00 0.00 70 1010.7
20260903014104 87 226 3.0 6.0 0.00 0.00 0.00 69 1010.8
20260903012605 87 211 2.0 5.0 0.00 0.00 0.00 68 1010.7
20260903012105 88 238 2.0 6.0 0.00 0.00 0.00 68 1010.7
20260903011104 88 239 2.0 6.0 0.00 0.00 0.00 67 1010.7
20260903010604 88 230 2.0 6.0 0.00 0.00 0.00 66 1010.6
20260903010105 88 216 0.0 0.0 0.00 0.00 0.00 66 1010.6
20260903005604 88 212 0.0 0.0 0.00 0.00 0.00 66 1010.6
20260903005104 89 235 0.0 0.0 0.00 0.00 0.00 65 1010.5
20260903004604 89 233 0.0 0.0 0.00 0.00 0.00 65 1010.4
20260903004105 89 223 0.0 0.0 0.00 0.00 0.00 64 1010.2
20260903003604 89 199 0.0 0.0 0.00 0.00 0.00 64 1010.2
20260903003104 89 249 0.0 0.0 0.00 0.00 0.00 63 1010.2
20260903002604 89 229 0.0 0.0 0.00 0.00 0.00 63 1010.2
20260903002104 90 233 0.0 3.0 0.00 0.00 0.00 62 1010.2
20260903001604 90 231 2.0 5.0 0.00 0.00 0.00 61 1010.2
20260903001105 90 221 4.0 12.0 0.00 0.00 0.00 61 1010.2
20260903000604 90 249 2.0 9.0 0.00 0.00 0.00 60 1010.3
20260903000105 91 240 2.0 9.0 0.00 0.00 0.00 59 1010.4
20260902235604 91 227 3.0 10.0 0.00 0.00 0.00 59 1010.5
20260902235104 91 199 2.0 7.0 0.00 0.00 0.00 58 1010.5
20260902234604 91 245 3.0 9.0 0.00 0.00 0.00 57 1010.5
20260902233604 92 216 3.0 6.0 0.00 0.00 0.00 56 1010.5
20260902233105 92 239 3.0 7.0 0.00 0.00 0.00 56 1010.5
20260902232606 92 231 4.0 12.0 0.00 0.00 0.00 55 1010.6
20260902231604 93 239 3.0 12.0 0.00 0.00 0.00 54 1010.6
20260902230605 94 257 4.0 9.0 0.00 0.00 0.00 53 1010.5
20260902230104 94 277 3.0 9.0 0.00 0.00 0.00 53 1010.2
20260902225604 94 284 3.0 12.0 0.00 0.00 0.00 52 1010.1
20260902225105 94 244 4.0 10.0 0.00 0.00 0.00 52 1010.1
20260902224604 94 211 5.0 9.0 0.00 0.00 0.00 51 1010.1
20260902224104 95 222 3.0 7.0 0.00 0.00 0.00 51 1010.1
20260902223104 95 227 2.0 7.0 0.00 0.00 0.00 50 1010.2
20260902222604 95 228 6.0 13.0 0.00 0.00 0.00 50 1010.2
20260902222105 95 227 6.0 13.0 0.00 0.00 0.00 49 1010.1
20260902221604 95 235 3.0 7.0 0.00 0.00 0.00 49 1010.1
20260902221104 95 221 6.0 15.0 0.00 0.00 0.00 48 1010.1
20260902220105 95 241 5.0 12.0 0.00 0.00 0.00 50 1010.2
20260902215104 95 195 3.0 10.0 0.00 0.00 0.00 50 1010.2
20260902214604 95 236 6.0 14.0 0.00 0.00 0.00 49 1010.3
20260902214104 95 252 7.0 14.0 0.00 0.00 0.00 49 1010.4
20260902213104 95 245 4.0 10.0 0.00 0.00 0.00 48 1010.4
20260902212604 95 239 6.0 14.0 0.00 0.00 0.00 48 1010.4
20260902212104 95 276 5.0 12.0 0.00 0.00 0.00 49 1010.4
20260902211604 96 224 8.0 18.0 0.00 0.00 0.00 48 1010.4
20260902211104 96 269 6.0 15.0 0.00 0.00 0.00 47 1010.4
20260902210604 96 196 5.0 14.0 0.00 0.00 0.00 48 1010.3
20260902210104 96 279 3.0 13.0 0.00 0.00 0.00 47 1010.5
20260902205604 96 209 6.0 13.0 0.00 0.00 0.00 47 1010.6
20260902205105 96 250 7.0 14.0 0.00 0.00 0.00 48 1010.6
20260902204604 96 229 6.0 18.0 0.00 0.00 0.00 48 1010.7
20260902204105 96 212 5.0 13.0 0.00 0.00 0.00 49 1010.7
20260902203604 96 247 6.0 13.0 0.00 0.00 0.00 48 1010.7
20260902203104 96 274 3.0 12.0 0.00 0.00 0.00 50 1010.7
20260902202604 96 182 5.0 12.0 0.00 0.00 0.00 50 1010.7
20260902202104 97 226 5.0 12.0 0.00 0.00 0.00 49 1010.9
20260902201604 97 238 5.0 10.0 0.00 0.00 0.00 48 1011.0
20260902200604 97 233 5.0 12.0 0.00 0.00 0.00 48 1011.2
20260902200104 97 232 4.0 13.0 0.00 0.00 0.00 49 1011.2
20260902195604 97 270 4.0 12.0 0.00 0.00 0.00 48 1011.2
20260902195104 97 260 5.0 13.0 0.00 0.00 0.00 49 1011.2
20260902194604 97 242 6.0 16.0 0.00 0.00 0.00 48 1011.3
20260902194104 97 285 7.0 13.0 0.00 0.00 0.00 48 1011.3
20260902193604 97 263 4.0 15.0 0.00 0.00 0.00 48 1011.4
20260902193104 97 306 5.0 13.0 0.00 0.00 0.00 47 1011.5
20260902192605 97 210 7.0 15.0 0.00 0.00 0.00 48 1011.6
20260902192104 97 226 3.0 10.0 0.00 0.00 0.00 48 1011.5
20260902191604 97 264 5.0 12.0 0.00 0.00 0.00 49 1011.4
20260902190604 97 226 4.0 10.0 0.00 0.00 0.00 49 1011.7
20260902190104 97 228 5.0 12.0 0.00 0.00 0.00 50 1011.7
20260902185104 96 210 4.0 10.0 0.00 0.00 0.00 50 1011.7
20260902184604 97 229 7.0 13.0 0.00 0.00 0.00 51 1011.7
20260902184105 96 197 4.0 14.0 0.00 0.00 0.00 52 1011.7
20260902183604 96 273 5.0 13.0 0.00 0.00 0.00 51 1011.8
20260902183104 96 243 5.0 13.0 0.00 0.00 0.00 52 1011.8
20260902182104 96 276 5.0 14.0 0.00 0.00 0.00 52 1012.0
20260902181605 96 275 5.0 12.0 0.00 0.00 0.00 50 1012.0
20260902181104 96 251 5.0 13.0 0.00 0.00 0.00 51 1012.1
20260902180604 96 271 4.0 8.0 0.00 0.00 0.00 51 1012.2
20260902180104 96 267 5.0 14.0 0.00 0.00 0.00 51 1012.3
20260902175604 96 237 6.0 10.0 0.00 0.00 0.00 52 1012.3
20260902173604 95 244 3.0 12.0 0.00 0.00 0.00 54 1012.4
20260902172604 95 209 3.0 8.0 0.00 0.00 0.00 55 1012.5
20260902172104 95 180 2.0 7.0 0.00 0.00 0.00 55 1012.6
20260902171605 95 232 6.0 14.0 0.00 0.00 0.00 54 1012.8
20260902171104 95 231 4.0 10.0 0.00 0.00 0.00 54 1012.8
20260902170604 95 237 5.0 9.0 0.00 0.00 0.00 54 1012.8
20260902170104 94 185 3.0 6.0 0.00 0.00 0.00 56 1012.8
20260902165604 94 305 2.0 6.0 0.00 0.00 0.00 57 1012.8
20260902165104 93 269 4.0 9.0 0.00 0.00 0.00 57 1012.8
20260902164604 93 229 5.0 9.0 0.00 0.00 0.00 57 1012.9
20260902164104 93 277 5.0 10.0 0.00 0.00 0.00 57 1013.0
20260902163604 93 261 3.0 6.0 0.00 0.00 0.00 59 1013.1
20260902163104 93 235 5.0 9.0 0.00 0.00 0.00 59 1013.1
20260902162604 92 219 4.0 9.0 0.00 0.00 0.00 59 1013.1
20260902162104 92 233 4.0 7.0 0.00 0.00 0.00 61 1013.2
20260902161604 92 257 2.0 5.0 0.00 0.00 0.00 61 1013.3
20260902161104 91 283 3.0 7.0 0.00 0.00 0.00 61 1013.4
20260902160603 91 251 2.0 6.0 0.00 0.00 0.00 63 1013.4
20260902160105 90 244 2.0 6.0 0.00 0.00 0.00 63 1013.4
20260902155604 90 255 3.0 8.0 0.00 0.00 0.00 63 1013.4
20260902155104 90 271 2.0 8.0 0.00 0.00 0.00 64 1013.4
20260902154604 90 265 3.0 9.0 0.00 0.00 0.00 63 1013.4
20260902154104 90 263 2.0 6.0 0.00 0.00 0.00 64 1013.4
20260902153604 89 253 1.0 10.0 0.00 0.00 0.00 65 1013.4
20260902153105 89 288 1.0 3.0 0.00 0.00 0.00 67 1013.4
20260902152604 89 263 2.0 7.0 0.00 0.00 0.00 68 1013.4
20260902151604 88 261 3.0 6.0 0.00 0.00 0.00 69 1013.4
20260902151104 87 222 3.0 7.0 0.00 0.00 0.00 70 1013.3
20260902150104 86 236 2.0 6.0 0.00 0.00 0.00 73 1013.3
20260902145604 86 240 2.0 3.0 0.00 0.00 0.00 74 1013.3
20260902144604 85 214 2.0 5.0 0.00 0.00 0.00 77 1013.2
20260902144104 84 226 3.0 7.0 0.00 0.00 0.00 78 1013.2
20260902143604 84 238 3.0 6.0 0.00 0.00 0.00 79 1013.3
20260902142104 83 235 0.0 0.0 0.00 0.00 0.00 83 1013.3
20260902141604 82 243 0.0 0.0 0.00 0.00 0.00 84 1013.3
20260902141103 82 228 0.0 0.0 0.00 0.00 0.00 85 1013.3
20260902140604 81 256 0.0 0.0 0.00 0.00 0.00 86 1013.2
20260902140104 81 240 0.0 0.0 0.00 0.00 0.00 87 1013.3
20260902135604 81 270 0.0 0.0 0.00 0.00 0.00 88 1013.3
20260902135103 80 189 0.0 0.0 0.00 0.00 0.00 89 1013.2
20260902134604 80 243 0.0 0.0 0.00 0.00 0.00 90 1013.3
20260902134103 79 247 0.0 0.0 0.00 0.00 0.00 91 1013.4
20260902133104 79 249 0.0 0.0 0.00 0.00 0.00 92 1013.3
20260902132104 78 243 0.0 0.0 0.00 0.00 0.00 92 1013.4
20260902131604 78 225 0.0 0.0 0.00 0.00 0.00 92 1013.4
20260902131104 78 245 0.0 0.0 0.00 0.00 0.00 93 1013.5
20260902130604 78 232 0.0 0.0 0.00 0.00 0.00 93 1013.5
20260902125604 77 238 0.0 0.0 0.00 0.00 0.00 93 1013.5
20260902125104 77 234 0.0 0.0 0.00 0.00 0.00 93 1013.5
20260902124605 77 194 0.0 0.0 0.00 0.00 0.00 93 1013.4
20260902124104 77 226 0.0 0.0 0.00 0.00 0.00 93 1013.4
20260902123604 77 242 0.0 0.0 0.00 0.00 0.00 93 1013.4
20260902123104 76 250 0.0 0.0 0.00 0.00 0.00 93 1013.4
20260902122104 76 243 0.0 0.0 0.00 0.00 0.00 93 1013.4
20260902121604 76 243 0.0 0.0 0.00 0.00 0.00 93 1013.3
20260902121104 76 251 0.0 0.0 0.00 0.00 0.00 93 1013.3
20260902120604 76 228 0.0 0.0 0.00 0.00 0.00 93 1013.2
20260902120104 76 215 0.0 0.0 0.00 0.00 0.00 93 1013.1
20260902115603 76 189 0.0 0.0 0.00 0.00 0.00 92 1013.0
20260902114604 76 189 0.0 0.0 0.00 0.00 0.00 92 1013.0
20260902114104 76 189 0.0 0.0 0.00 0.00 0.00 92 1013.0
20260902113604 76 189 0.0 0.0 0.00 0.00 0.00 92 1013.1
20260902112604 76 244 0.0 0.0 0.00 0.00 0.00 92 1013.2
20260902112103 76 244 0.0 0.0 0.00 0.00 0.00 92 1013.0
20260902111604 76 244 0.0 0.0 0.00 0.00 0.00 92 1013.2
20260902111103 76 244 0.0 0.0 0.00 0.00 0.00 92 1013.3
20260902110604 76 244 0.0 0.0 0.00 0.00 0.00 92 1013.3
20260902105603 76 255 0.0 0.0 0.00 0.00 0.00 92 1013.3
20260902105104 76 255 0.0 0.0 0.00 0.00 0.00 92 1013.3
20260902104604 76 255 0.0 0.0 0.00 0.00 0.00 92 1013.3
20260902104104 76 255 0.0 0.0 0.00 0.00 0.00 92 1013.4
20260902103603 76 255 0.0 0.0 0.00 0.00 0.00 92 1013.3
20260902103104 76 255 0.0 0.0 0.00 0.00 0.00 92 1013.0
20260902102604 76 255 0.0 0.0 0.00 0.00 0.00 92 1012.9
20260902101604 76 255 0.0 0.0 0.00 0.00 0.00 92 1012.9
20260902101104 77 255 0.0 0.0 0.00 0.00 0.00 92 1012.8
20260902100104 77 254 0.0 0.0 0.00 0.00 0.00 91 1012.9
20260902095604 77 254 0.0 0.0 0.00 0.00 0.00 91 1012.9
20260902095103 77 254 0.0 0.0 0.00 0.00 0.00 91 1012.9
20260902093604 77 256 0.0 0.0 0.00 0.00 0.00 91 1012.9
20260902093105 77 256 0.0 0.0 0.00 0.00 0.00 91 1012.9
20260902092604 77 249 0.0 0.0 0.00 0.00 0.00 91 1012.9
20260902092104 77 200 0.0 0.0 0.00 0.00 0.00 91 1012.9
20260902091604 77 229 0.0 0.0 0.00 0.00 0.00 91 1012.9
20260902090604 77 229 0.0 0.0 0.00 0.00 0.00 91 1012.8
20260902090104 77 194 0.0 0.0 0.00 0.00 0.00 91 1012.8
20260902085104 77 242 0.0 0.0 0.00 0.00 0.00 91 1012.9
20260902084603 77 242 0.0 0.0 0.00 0.00 0.00 91 1012.9
20260902084103 76 182 0.0 0.0 0.00 0.00 0.00 90 1012.8
20260902083604 76 221 0.0 0.0 0.00 0.00 0.00 90 1012.8
20260902083104 76 254 0.0 0.0 0.00 0.00 0.00 90 1012.8
20260902082103 76 236 0.0 0.0 0.00 0.00 0.00 90 1012.7
20260902081104 76 232 0.0 0.0 0.00 0.00 0.00 89 1012.6
20260902080603 76 232 0.0 0.0 0.00 0.00 0.00 89 1012.6
20260902080104 76 232 0.0 0.0 0.00 0.00 0.00 89 1012.7
20260902075604 76 232 0.0 0.0 0.00 0.00 0.00 89 1012.7
20260902075103 76 232 0.0 0.0 0.00 0.00 0.00 89 1012.7
20260902074604 76 232 0.0 0.0 0.00 0.00 0.00 89 1012.7
20260902074104 76 232 0.0 0.0 0.00 0.00 0.00 89 1012.7
20260902073604 75 232 0.0 0.0 0.00 0.00 0.00 88 1012.7
20260902073103 75 254 0.0 0.0 0.00 0.00 0.00 88 1012.7
20260902072603 75 254 0.0 0.0 0.00 0.00 0.00 88 1012.6
20260902072104 75 254 0.0 0.0 0.00 0.00 0.00 88 1012.6
20260902071604 75 254 0.0 0.0 0.00 0.00 0.00 88 1012.5
20260902071104 75 254 0.0 0.0 0.00 0.00 0.00 88 1012.5
20260902065604 75 254 0.0 0.0 0.00 0.00 0.00 87 1012.6
20260902065103 75 254 0.0 0.0 0.00 0.00 0.00 87 1012.5
20260902064604 75 254 0.0 0.0 0.00 0.00 0.00 87 1012.5
20260902064104 75 254 0.0 0.0 0.00 0.00 0.00 87 1012.5
20260902063605 75 254 0.0 0.0 0.00 0.00 0.00 87 1012.7
20260902062605 75 254 0.0 0.0 0.00 0.00 0.00 87 1012.9
20260902062105 75 254 0.0 0.0 0.00 0.00 0.00 87 1012.9
20260902061604 75 254 0.0 0.0 0.00 0.00 0.00 86 1012.9
20260902061104 75 254 0.0 0.0 0.00 0.00 0.00 86 1012.9
20260902060605 75 254 0.0 0.0 0.00 0.00 0.00 86 1013.1
20260902060104 75 254 0.0 0.0 0.00 0.00 0.00 86 1013.2
20260902055604 76 254 0.0 0.0 0.00 0.00 0.00 86 1013.3
20260902055105 76 254 0.0 0.0 0.00 0.00 0.00 86 1013.2
20260902054605 76 254 0.0 0.0 0.00 0.00 0.00 86 1013.3
20260902054104 76 254 0.0 0.0 0.00 0.00 0.00 86 1013.3
20260902053604 76 254 0.0 0.0 0.00 0.00 0.00 86 1013.3